This demonstration page uses our WeatherBlox Daily Observations layout. Learn more.

41.55636, -103.73856

Hourly Observations for September 7, 2017

Temp ( °F °C ) Dew Point ( °F °C ) Humidity (%) Winds ( mph kmh ) Pressure ( in mb ) Visibility ( mi km ) Precip ( " mm )
12:53 am 00:53 Clear 56 13.3 38 3.3 51 51 undefined N/A 30.05 1018 10 16.0934 0 0
1:53 am 01:53 Clear 55 12.8 37 2.8 51 51 ESE 9 15 30.03 1017 10 16.0934 0 0
2:53 am 02:53 Clear 54 12.2 37 2.8 53 53 E 7 11 30.02 1017 10 16.0934 0 0
3:53 am 03:53 Clear 52 11.1 38 3.3 59 59 E 6 9 30.02 1017 10 16.0934 0 0
4:53 am 04:53 Clear 50 10 37 2.8 61 61 undefined N/A 30.01 1016 10 16.0934 0 0
5:53 am 05:53 Clear 50 10 39 3.9 66 66 SSE 3 6 30.01 1016 10 16.0934 0 0
6:53 am 06:53 Sunny 49 9.4 40 4.4 71 71 ESE 3 6 30.02 1017 10 16.0934 0 0
7:53 am 07:53 Sunny 55 12.8 37 2.8 51 51 ESE 5 7 30.03 1017 10 16.0934 0 0
8:53 am 08:53 Sunny 59 15 38 3.3 46 46 S 6 9 30.02 1017 10 16.0934 0 0
9:53 am 09:53 Sunny 66 18.9 40 4.4 39 39 E 3 6 30.01 1016 10 16.0934 0 0
10:53 am 10:53 Sunny 72 22.2 41 5 33 33 VRB 3 6 30 1016 10 16.0934 0 0
11:53 am 11:53 Sunny 76 24.4 44 6.7 32 32 S 3 6 29.98 1015 10 16.0934 0 0
12:53 pm 12:53 Sunny 80 26.7 44 6.7 28 28 SSW 5 7 29.96 1015 10 16.0934 0 0
1:53 pm 13:53 Sunny 83 28.3 44 6.7 25 25 E 5 7 29.94 1014 10 16.0934 0 0
2:53 pm 14:53 Sunny 83 28.3 47 8.3 28 28 E 7 11 29.92 1013 10 16.0934 0 0
3:53 pm 15:53 Sunny 84 28.9 48 8.9 29 29 E 7 11 29.91 1013 10 16.0934 0 0
4:53 pm 16:53 Sunny 85 29.4 48 8.9 28 28 E 7 11 29.89 1012 10 16.0934 0 0
5:53 pm 17:53 Sunny 84 28.9 48 8.9 29 29 E 7 11 29.89 1012 10 16.0934 0 0
6:53 pm 18:53 Sunny 77 25 48 8.9 36 36 E 7 11 29.91 1013 10 16.0934 0 0
7:53 pm 19:53 Clear 72 22.2 46 7.8 40 40 undefined N/A 29.92 1013 10 16.0934 0 0
8:53 pm 20:53 Clear 70 21.1 46 7.8 42 42 ESE 10 17 29.94 1014 10 16.0934 0 0
9:53 pm 21:53 Clear 64 17.8 47 8.3 54 54 E 7 11 29.95 1014 10 16.0934 0 0
10:53 pm 22:53 Clear 61 16.1 47 8.3 60 60 E 8 13 29.96 1014 10 16.0934 0 0
11:53 pm 23:53 Clear 60 15.6 46 7.8 60 60 E 7 11 29.95 1014 10 16.0934 0 0

Powered by AerisWeather